#timestamp,LO_Frequency,Hit,StdDev 
1539511215.1,286046998.4,N
1539511235.8,286047000.7,N
1539511255.7,286047000.6,N
1539511275.5,286046998.5,N
1539511295.4,286047001.2,N
1539511315.2,286047000.9,N
1539511365.1,286047000.7,E
1539511375.9,286046998.4,N
1539511395.7,286046999.1,P
1539511415.6,286046998.4,P
1539511435.4,286046997.4,Y
1539511455.2,286046999.5,P
1539511475.1,286046999.0,N
1539511476.0,286046999.0,N
1539511495.8,286047000.5,N
1539511515.7,286047000.1,N
1539511535.5,286047002.6,Y
1539511555.3,286047002.2,P
1539511575.2,286047002.2,N
1539511595.0,286047001.7,N
1539511595.9,286047001.7,N
1539511615.8,286047000.1,N
1539511635.6,286047001.0,N
1539511655.4,286046999.9,N
1539511675.3,286047000.7,N
1539511695.1,286047000.6,N
1539511715.9,286047000.5,N
1539511735.7,286047000.3,N
1539511755.5,286046999.9,N
1539511775.4,286047000.5,N
1539511795.2,286047000.2,N
1539511815.0,286047002.8,Y
1539511815.9,286047002.8,P
1539511835.8,286047000.2,N
1539511855.6,286046999.9,N
1539511875.5,286047000.2,N
1539511895.4,286047002.5,N
1539511915.2,286047000.3,N
1539511935.0,286046998.2,N
1539511936.0,286046998.2,N
1539511955.8,286047001.0,N
1539511975.6,286046999.8,N
1539511995.5,286047000.1,N
1539512015.3,286047000.3,N
1539512035.1,286047002.8,N
1539512055.9,286046998.1,N
1539512075.7,286046999.9,N
1539512095.6,286047000.6,N
1539512115.4,286047001.1,N
1539512135.2,286047000.7,N
1539512155.1,286047000.0,N
1539512156.0,286047000.0,N
1539512175.8,286047002.6,N
1539512195.1,286047002.4,N
1539512196.0,286047002.4,N
1539512215.8,286047001.4,N
1539512235.7,286047001.8,N
1539512255.5,286047004.4,Y
1539512275.4,286046998.2,P
1539512295.2,286046999.0,N
1539512315.0,286046998.6,N
1539512315.9,286046998.6,N
1539512335.8,286047000.6,N
1539512355.6,286047000.7,N
1539512375.5,286047000.6,N
1539512395.3,286047000.9,N
1539512415.1,286046998.1,N
1539512435.9,286046998.2,N
1539512455.7,286046998.5,N
1539512475.6,286046998.5,N
1539512495.4,286047001.2,N
1539512515.2,286046998.1,N
1539512535.1,286046999.9,N
1539512536.0,286046999.9,N
1539512555.8,286047002.8,N
1539512575.6,286046998.8,N
1539512595.5,286046999.4,N
1539512615.3,286046999.1,N
1539512635.2,286046999.3,N
1539512655.9,286046998.5,N
1539512675.7,286047000.9,N
1539512695.6,286046998.1,N
1539512715.4,286046998.9,N
1539512735.2,286046998.6,N
1539512755.1,286046998.8,N
1539512756.0,286046998.8,N
1539512775.8,286047000.9,N
1539512795.7,286047000.1,N
1539512815.5,286047002.0,N
1539512835.3,286047002.1,N
1539512855.2,286047001.4,N
1539512875.0,286047001.4,N
1539512875.9,286047001.4,N
1539512895.7,286047003.7,N
1539512915.6,286047005.9,Y
1539512935.4,286047004.6,P
1539512955.3,286047005.6,N
1539512975.1,286047005.8,N
1539512995.8,286047005.4,N
1539513015.7,286047006.0,N
1539513035.5,286047005.5,N
1539513055.4,286047002.9,N
1539513075.2,286047005.9,Y
1539513095.0,286047000.1,P
1539513095.9,286047000.1,N
1539513115.8,286047000.7,N
1539513135.6,286047000.7,N
1539513155.4,286047002.8,N
1539513175.3,286047002.7,N
1539513195.1,286046999.9,N
1539513215.9,286047002.2,N
1539513235.7,286046999.8,N
1539513255.5,286047000.3,N
1539513275.4,286047000.4,N
1539513295.2,286047000.4,N
1539513315.0,286047000.3,N
1539513315.9,286047000.3,N
1539513335.8,286047002.4,N
1539513355.6,286047002.7,N
1539513375.5,286047000.3,N
1539513395.3,286047000.5,N
1539513415.1,286047001.0,N
1539513435.9,286046998.5,N
1539513455.7,286046998.4,N
1539513475.5,286046999.0,N
1539513495.4,286046996.5,N
1539513515.2,286046998.8,N
1539513535.1,286046999.3,N
1539513536.0,286046999.3,N
1539513555.8,286046999.0,N
1539513575.6,286046996.5,N
1539513595.5,286046999.0,N
1539513615.3,286046998.7,N
1539513635.1,286046999.2,N
1539513655.9,286046999.5,N
1539513675.7,286046998.4,N
1539513695.6,286046999.5,N
1539513715.4,286046999.3,N
1539513735.2,286046996.5,N
1539513755.1,286046998.9,N
1539513756.0,286046998.9,N
1539513775.8,286046998.1,N
1539513795.6,286046998.9,N
1539513815.5,286046999.5,N
1539513835.3,286046996.9,N
1539513855.2,286046997.3,N
1539513875.9,286046997.1,N
1539513895.7,286046998.0,N
1539513915.6,286046997.8,N
1539513935.4,286046999.6,N
1539513955.2,286046997.1,N
1539513975.1,286046997.3,N
1539513976.0,286046997.3,N
1539513995.8,286046997.1,N
1539514015.7,286046997.5,N
1539514035.5,286046995.0,Y
1539514055.3,286046999.4,P
1539514075.2,286046999.1,N
1539514095.0,286046998.3,P
1539514095.9,286046998.3,Y
1539514115.8,286047000.9,P
1539514135.6,286046999.9,N
1539514155.4,286046998.5,N
1539514175.3,286047000.8,N
1539514195.1,286046998.1,N
1539514215.8,286046998.7,N
1539514235.7,286046998.1,N
1539514255.5,286046998.1,N
1539514275.4,286046998.1,N
1539514295.2,286046998.3,N
1539514315.0,286046999.5,N
1539514315.9,286046999.5,N
1539514335.8,286046999.2,N
1539514355.6,286046999.1,N
1539514375.4,286046999.0,N
1539514395.3,286046996.5,Y
1539514415.1,286046998.8,P
1539514435.9,286046998.6,P
1539514455.7,286046998.7,P
1539514475.5,286046998.2,Y
1539514495.4,286047000.7,P
1539514515.2,286047000.7,N
1539514535.0,286047000.4,N
1539514535.9,286047000.4,N
1539514555.8,286047000.2,N
1539514575.6,286046999.7,N
1539514595.5,286047001.9,N
1539514615.3,286047002.5,N
1539514635.1,286046999.8,N
1539514655.9,286047000.4,N
1539514675.7,286047002.4,N
1539514695.5,286047001.0,N
1539514715.4,286047002.7,N
1539514735.2,286047000.6,N
1539514755.1,286046998.5,N
1539514756.0,286046998.5,N
1539514775.8,286047001.0,N
1539514795.6,286046998.5,N
